This demonstration page uses our WeatherBlox Daily Observations layout. Learn more.

Hourly Observations for February 5, 2017

Temp ( °F °C ) Dew Point ( °F °C ) Humidity (%) Winds ( mph kmh ) Pressure ( in mb ) Visibility ( mi km ) Precip ( " mm )
12:15 am 00:15 Clear 32 0 12 -11 44 44 undefined N/A 30.27 1025 10 16.09344 0 0
12:35 am 00:35 Clear 32 0 12 -11 44 44 undefined N/A 30.27 1025 10 16.09344 0 0
12:55 am 00:55 Clear 32 0 12 -11 44 44 undefined N/A 30.24 1024 10 16.09344 0 0
1:15 am 01:15 Clear 32 0 12 -11 44 44 undefined N/A 30.24 1024 10 16.09344 0 0
1:35 am 01:35 Clear 32 0 12 -11 44 44 undefined N/A 30.24 1024 10 16.09344 0 0
1:55 am 01:55 Clear 32 0 12 -11 44 44 undefined N/A 30.21 1023 10 16.09344 0 0
2:15 am 02:15 Clear 32 0 14 -10 47 47 undefined N/A 30.21 1023 10 16.09344 0 0
2:35 am 02:35 Clear 32 0 14 -10 47 47 SSW 5 7 30.21 1023 10 16.09344 0 0
2:55 am 02:55 Clear 32 0 14 -10 47 47 undefined N/A 30.21 1023 10 16.09344 0 0
3:15 am 03:15 Clear 32 0 14 -10 47 47 undefined N/A 30.18 1022 10 16.09344 0 0
3:35 am 03:35 Partly Cloudy 32 0 14 -10 47 47 undefined N/A 30.18 1022 10 16.09344 0 0
3:55 am 03:55 Cloudy 32 0 14 -10 47 47 S 8 13 30.15 1021 10 16.09344 0 0
4:15 am 04:15 Cloudy 32 0 14 -10 47 47 SSW 7 11 30.15 1021 10 16.09344 0 0
4:35 am 04:35 Cloudy 32 0 14 -10 47 47 undefined N/A 30.15 1021 10 16.09344 0 0
4:55 am 04:55 Cloudy 32 0 16 -9 51 51 undefined N/A 30.15 1021 10 16.09344 0 0
5:15 am 05:15 Cloudy 32 0 16 -9 51 51 undefined N/A 30.15 1021 10 16.09344 0 0
5:35 am 05:35 Cloudy 32 0 16 -9 51 51 undefined N/A 30.15 1021 10 16.09344 0 0
5:55 am 05:55 Cloudy 32 0 16 -9 51 51 undefined N/A 30.12 1020 10 16.09344 0 0
6:15 am 06:15 Cloudy 34 1 18 -8 51 51 undefined N/A 30.12 1020 10 16.09344 0 0
6:35 am 06:35 Cloudy 34 1 18 -8 51 51 undefined N/A 30.12 1020 10 16.09344 0 0
6:55 am 06:55 Cloudy 34 1 18 -8 51 51 undefined N/A 30.12 1020 10 16.09344 0 0
7:15 am 07:15 Cloudy 34 1 18 -8 51 51 undefined N/A 30.12 1020 10 16.09344 0 0
7:35 am 07:35 Cloudy 34 1 18 -8 51 51 undefined N/A 30.12 1020 10 16.09344 0 0
7:55 am 07:55 Cloudy 34 1 18 -8 51 51 undefined N/A 30.09 1019 10 16.09344 0 0
8:15 am 08:15 Cloudy 34 1 18 -8 51 51 undefined N/A 30.09 1019 10 16.09344 0 0
8:35 am 08:35 Cloudy 34 1 18 -8 51 51 undefined N/A 30.09 1019 10 16.09344 0 0
8:55 am 08:55 Cloudy 34 1 18 -8 51 51 undefined N/A 30.09 1019 10 16.09344 0 0
9:15 am 09:15 Cloudy 36 2 18 -8 48 48 undefined N/A 30.06 1018 10 16.09344 0 0
9:35 am 09:35 Cloudy 36 2 18 -8 48 48 undefined N/A 30.06 1018 10 16.09344 0 0
9:55 am 09:55 Cloudy 36 2 19 -7 52 52 undefined N/A 30.06 1018 10 16.09344 0 0
10:15 am 10:15 Cloudy 37 3 19 -7 48 48 undefined N/A 30.06 1018 10 16.09344 0 0
10:35 am 10:35 Cloudy 39 4 19 -7 45 45 undefined N/A 30.06 1018 10 16.09344 0 0
10:55 am 10:55 Cloudy 41 5 19 -7 42 42 undefined N/A 30.03 1017 10 16.09344 0 0
11:15 am 11:15 Cloudy 43 6 19 -7 39 39 undefined N/A 30.03 1017 10 16.09344 0 0
11:35 am 11:35 Cloudy 45 7 19 -7 37 37 undefined N/A 30.03 1017 10 16.09344 0 0
11:55 am 11:55 Cloudy 45 7 21 -6 39 39 undefined N/A 30 1016 10 16.09344 0 0
12:15 pm 12:15 Cloudy 45 7 21 -6 39 39 undefined N/A 30 1016 10 16.09344 0 0
12:35 pm 12:35 Cloudy 46 8 21 -6 37 37 SW 8 13 30 1016 10 16.09344 0 0
12:55 pm 12:55 Cloudy 46 8 23 -5 40 40 SW 5 7 29.97 1015 10 16.09344 0 0
1:15 pm 13:15 Cloudy 46 8 23 -5 40 40 undefined N/A 29.97 1015 10 16.09344 0 0
1:35 pm 13:35 Cloudy 48 9 23 -5 37 37 W 7 11 29.94 1014 10 16.09344 0 0
1:55 pm 13:55 Cloudy 50 10 25 -4 37 37 SW 10 17 29.91 1013 10 16.09344 0 0
2:15 pm 14:15 Cloudy 50 10 27 -3 40 40 SSW 9 15 29.91 1013 10 16.09344 0 0
2:35 pm 14:35 Cloudy 52 11 28 -2 41 41 WSW 8 13 29.91 1013 10 16.09344 0 0
2:55 pm 14:55 Partly Cloudy 52 11 28 -2 41 41 WSW 9 15 29.91 1013 10 16.09344 0 0
3:15 pm 15:15 Mostly Cloudy 52 11 28 -2 41 41 SW 10 17 29.91 1013 10 16.09344 0 0
3:35 pm 15:35 Partly Cloudy 52 11 30 -1 44 44 W 10 17 29.91 1013 10 16.09344 0 0
3:55 pm 15:55 Mostly Cloudy 52 11 30 -1 44 44 WNW 3 6 29.91 1013 10 16.09344 0 0
4:15 pm 16:15 Partly Cloudy 52 11 32 0 47 47 WNW 9 15 29.91 1013 10 16.09344 0 0
4:35 pm 16:35 Sunny 52 11 32 0 47 47 WNW 8 13 29.91 1013 10 16.09344 0 0
4:55 pm 16:55 Sunny 52 11 32 0 47 47 NW 8 13 29.91 1013 10 16.09344 0 0
5:15 pm 17:15 Sunny 50 10 32 0 50 50 WNW 8 13 29.94 1014 10 16.09344 0 0
5:35 pm 17:35 Sunny 46 8 32 0 57 57 WNW 9 15 29.97 1015 10 16.09344 0 0
5:55 pm 17:55 Partly Cloudy 48 9 32 0 54 54 NW 8 13 30 1016 10 16.09344 0 0
6:15 pm 18:15 Partly Cloudy 46 8 32 0 57 57 WNW 5 7 30 1016 10 16.09344 0 0
6:35 pm 18:35 Partly Cloudy 45 7 32 0 61 61 W 5 7 30 1016 10 16.09344 0 0
6:55 pm 18:55 Partly Cloudy 46 8 32 0 57 57 W 5 7 30 1016 10 16.09344 0 0
7:15 pm 19:15 Partly Cloudy 45 7 32 0 61 61 WSW 3 6 30.03 1017 10 16.09344 0 0
7:35 pm 19:35 Clear 45 7 32 0 61 61 SW 5 7 30.03 1017 10 16.09344 0 0
7:55 pm 19:55 Clear 45 7 32 0 61 61 undefined N/A 30.03 1017 10 16.09344 0 0
8:15 pm 20:15 Clear 39 4 32 0 75 75 undefined N/A 30.03 1017 10 16.09344 0 0
8:35 pm 20:35 Clear 45 7 32 0 61 61 undefined N/A 30.03 1017 10 16.09344 0 0
8:55 pm 20:55 Clear 45 7 32 0 61 61 SSW 7 11 30.03 1017 10 16.09344 0 0
9:15 pm 21:15 Clear 43 6 32 0 66 66 undefined N/A 30.03 1017 10 16.09344 0 0
9:35 pm 21:35 Clear 45 7 32 0 61 61 undefined N/A 30.03 1017 10 16.09344 0 0
9:55 pm 21:55 Clear 45 7 32 0 61 61 undefined N/A 30.03 1017 10 16.09344 0 0
10:15 pm 22:15 Partly Cloudy 45 7 32 0 61 61 undefined N/A 30.03 1017 10 16.09344 0 0
10:35 pm 22:35 Mostly Cloudy 46 8 32 0 57 57 undefined N/A 30.06 1018 10 16.09344 0 0
10:55 pm 22:55 Cloudy 46 8 32 0 57 57 undefined N/A 30.06 1018 10 16.09344 0 0
11:15 pm 23:15 Cloudy 46 8 32 0 57 57 undefined N/A 30.06 1018 10 16.09344 0 0
11:35 pm 23:35 Cloudy 45 7 32 0 61 61 W 3 6 30.06 1018 10 16.09344 0 0
11:55 pm 23:55 Cloudy 43 6 32 0 66 66 undefined N/A 30.06 1018 10 16.09344 0 0

Powered by AerisWeather